Flag for Mexico Weather past 2 weeks in Guadalajara, Jalisco, Mexico

Now
61 °F

Clear.


Feels Like: 61 °F
Forecast: 60 / 84 °F
Wind: No wind

Location: Don Miguel / Guadalaj

Current Time: Jul 23, 2014 at 5:44:25 AM

Latest Report: Jul 23, 2014 at 4:43 AM


Visibility: 10 mi

Pressure: 30.20 "Hg

Humidity: 88%

Dew point: 57 °F

Location of GuadalajaraLocation

Historic Weather in Guadalajara — Graph

°F

Guadalajara temperature yesterday

Maximum temperature yesterday: 86 °F (at 6:48 PM)
Minimum temperature yesterday: 59 °F (at 5:50 AM)
Average temperature yesterday: 68 °F

Past Weeks' High & Low Weather Summary

 TemperatureHumidityPressure
High86 °F (Jul 21, 4:49 PM)94% (Jul 8, 7:47 AM)30.28 "Hg (Jul 8, 7:47 AM)
Low57 °F (Jul 14, 5:09 AM)29% (Jul 22, 6:48 PM)29.73 "Hg (Jul 10, 3:50 PM)
Average70 °F69%30.10 "Hg
* Reported Jul 8 4:51 AM — Jul 23 3:49 AM, Guadalajara, Weather by CustomWeather, © 2014

Note: Actual official high and low records may vary slightly from our data, if they occured in-between our weather recording intervals... More about our weather records

Advertising

Guadalajara weather history for previous 24 hours

 ConditionsComfort  
Time TempWeatherWind HumidityBarometerVisibility
3:49 AM
Jul 23
61 °FClear.No wind88%29.84 "Hg10 mi
2:51 AM63 °FClear.No wind83%30.20 "Hg10 mi
12:50 AM66 °FClear.7 mph78%29.84 "Hg10 mi
11:46 PM
Jul 22
64 °FClear.No wind73%30.19 "Hg10 mi
10:46 PM66 °FClear.No wind68%30.18 "Hg10 mi
9:51 PM70 °FPassing clouds.5 mph57%29.88 "Hg10 mi
8:45 PM72 °FPassing clouds.7 mph57%30.15 "Hg10 mi
7:47 PM79 °FPassing clouds.9 mph37%30.14 "Hg10 mi
6:48 PM86 °FScattered clouds.16 mph29%29.78 "Hg10 mi
11:46 AM77 °FSunny.5 mph54%30.24 "Hg7 mi
10:55 AM75 °FSunny.No wind54%30.24 "Hg8 mi
9:46 AM70 °FSunny.No wind64%29.88 "Hg7 mi
8:47 AM64 °FSunny.No wind78%30.23 "Hg8 mi
7:45 AM59 °FClear.No wind88%30.22 "Hg10 mi
6:50 AM59 °FClear.2 mph88%29.87 "Hg10 mi
5:50 AM59 °FClear.3 mph88%30.19 "Hg10 mi
Weather by CustomWeather, © 2014

See weather overviewHow to use our weather pages